Home   Weather   Drøbak   Past weeks

Flag for Norway Past Weather in Drøbak, Norway — Yesterday and Last 2 Weeks

Now
37 °F

Cool.


Feels Like: 37 °F
Forecast: 33 / 59 °F
Wind: No wind

Location: Hasle - MADIS Station

Current Time: May 1, 2017 at 8:26:13 am

Latest Report: May 1, 2017 at 8:08 am


Visibility: N/A

Pressure: 29.69 "Hg

Humidity: 1%

Dew Point: -55 °F

Location of DrøbakLocation

Past Weather in Drøbak — Graph

°F

Drøbak Temperature Yesterday

Maximum temperature yesterday: 53 °F (at 1:16 pm)
Minimum temperature yesterday: 31 °F (at 4:40 am)
Average temperature yesterday: 44 °F

High & Low Weather Summary for the Past Weeks

 TemperatureHumidityPressure
High56 °F (Apr 21, 12:49 pm)60% (Apr 23, 1:53 am)29.93 "Hg (Apr 23, 1:53 am)
Low27 °F (Apr 18, 5:21 am)1% (Apr 16, 7:38 am)28.67 "Hg (Apr 24, 6:46 pm)
Average40 °F33%29.38 "Hg
* Reported Apr 16 7:38 am — May 1 7:16 am, Drøbak, Weather by CustomWeather, © 2017

Note: Actual official high and low records may vary slightly from our data, if they occured in-between our weather recording intervals... More about our weather records

Advertising

Drøbak Weather History for the Previous 24 Hours

Scroll right to see more
 ConditionsComfort  
Time TempWeatherWind HumidityBarometerVisibility
7:16 am
Mon, May 1
37 °FCool.No wind1%29.66 "HgN/A
6:54 am37 °FCool.1 mph1%29.67 "HgN/A
6:36 am36 °FCool.No wind1%29.67 "HgN/A
6:22 am37 °FCool.1 mph1%29.65 "HgN/A
5:37 am36 °FCool.No wind1%29.63 "HgN/A
5:28 am36 °FCool.1 mph1%29.63 "HgN/A
4:34 am36 °FCool.1 mph1%29.62 "HgN/A
2:20 am37 °FCool.1 mph1%29.62 "HgN/A
1:52 am38 °FCool.No wind1%29.60 "HgN/A
12:49 am38 °FCool.No wind1%29.59 "HgN/A
12:31 am39 °FCool.No wind1%29.58 "HgN/A
11:37 pm
Sun, Apr 30
40 °FCool.No wind1%29.57 "HgN/A
11:19 pm40 °FCool.1 mph1%29.56 "HgN/A
10:52 pm41 °FCool.1 mph1%29.55 "HgN/A
10:34 pm42 °FCool.3 mph1%29.55 "HgN/A
10:22 pm42 °FCool.3 mphN/A29.57 "HgN/A
8:14 pm46 °FRefreshingly cool.6 mph53%29.53 "HgN/A
7:52 pm47 °FRefreshingly cool.6 mph55%29.51 "HgN/A
7:18 pm48 °FRefreshingly cool.6 mph55%29.52 "HgN/A
6:24 pm50 °FRefreshingly cool.7 mph54%29.52 "HgN/A
5:48 pm50 °FRefreshingly cool.8 mph50%29.52 "HgN/A
5:19 pm51 °FRefreshingly cool.8 mph49%29.51 "HgN/A
4:52 pm52 °FRefreshingly cool.8 mph47%29.50 "HgN/A
4:16 pm53 °FRefreshingly cool.8 mph44%29.51 "HgN/A
3:40 pm53 °FRefreshingly cool.8 mph46%29.51 "HgN/A
2:10 pm53 °FRefreshingly cool.8 mph42%29.52 "HgN/A
1:52 pm53 °FRefreshingly cool.8 mph43%29.52 "HgN/A
1:16 pm53 °FRefreshingly cool.5 mph41%29.53 "HgN/A
12:54 pm51 °FRefreshingly cool.2 mph43%29.55 "HgN/A
12:22 pm51 °FRefreshingly cool.5 mph43%29.54 "HgN/A
11:46 am50 °FRefreshingly cool.4 mph43%29.55 "HgN/A
11:28 am49 °FRefreshingly cool.5 mph46%29.55 "HgN/A
11:22 am49 °FRefreshingly cool.7 mph47%29.57 "HgN/A
10:34 am48 °FRefreshingly cool.2 mph51%29.56 "HgN/A
10:16 am47 °FRefreshingly cool.1 mph52%29.56 "HgN/A
9:22 am44 °FCool.1 mph53%29.57 "HgN/A
8:28 am40 °FCool.1 mph49%29.58 "HgN/A
8:02 am40 °FCool.No windN/A29.60 "HgN/A
Weather by CustomWeather, © 2017

See weather overviewHow to use our weather pages